SCP
0 0 0 0 0 0 0 0 0 0 -0 0 0 0 0 0 0 0 0 0 0 0 0 0 0 0 0 0 0 0 0 0 0 0 0 0 0 0 0 0 0 0 0 0 0 0 0
0 0 0 0 0 0 0 0 0 -0 -0 -0 0 -0 -0 -0 0 0 0 -0 -0 -0 0 0 0 0 0 0 0 0 0 0 0 0 0 0 0 0 0 0 0 0 0 0 0 0 0
0 0 0 0 0 0 0 0 0 -0 -0 -0 0 -0 -0 -0 -0 0 0 0 -0 -0 0 0 0 0 0 0 0 0 0 0 0 0 0 0 0 0 0 0 0 0 0 0 0 0 0
0 0 0 0 0 0 0 0 -0 -0 -0 -0 -0 -0 -0 -0 -0 0 0 -0 0 -0 -0 0 0 0 0 0 0 0 0 0 0 0 0 0 0 0 0 0 0 0 0 -0 -0 -0 0
0 0 0 0 0 0 0 0 0 -0 -0 -0 -0 -0 0 0 -0 0 0 0 0 0 0 0 0 0 0 0 0 0 0 0 0 0 0 0 0 0 0 0 0 0 0 0 -0 -0 -0
0 0 0 0 0 0 0 0 0 0 -0 -0 -0 0 0 0 0 0 0 0 -0 0 0 0 0 0 0 0 0 0 -0 0 0 0 0 0 0 0 0 0 0 -0 0 -0 -0 -0 -0
0 0 0 0 0 0 0 0 0 0 0 -0 -0 0 0 0 0 -0 0 0 0 0 0 0 0 0 0 0 -0 0 0 0 0 0 0 0 0 0 0 0 0 -0 -0 -0 0 0 0
0 0 0 0 0 0 0 0 0 0 0 0 0 0 0 0 0 0 0 0 0 0 0 0 0 -0 0 0 0 0 0 0 0 0 0 0 0 -0 0 0 0 0 0 0 0 -0 0
0 0 0 0 0 0 0 0 0 0 0 0 0 0 0 0 0 0 0 0 0 0 0 0 0 0 0 0 0 -0 0 0 0 0 0 0 0 0 0 0 0 0 0 0 0 0 0
0 0 0 0 0 0 0 0 0 0 0 0 0 0 0 0 0 0 0 0 0 0 0 0 0 -0 0 0 0 0 0 0 0 0 0 0 0 0 0 0 0 0 0 0 0 0 0
0 0 0 0 0 0 0 0 0 0 0 0 0 0 0 0 0 0 0 0 0 0 0 0 0 0 0 0 0 0 0 0 0 0 0 0 0 0 0 0 0 0 0 0 0 0 0
0 0 0 0 0 0 0 0 0 0 0 0 0 0 -0 0 0 0 -0 0 0 0 0 0 0 0 0 -0 0 0 0 0 0 0 0 0 0 0 0 0 0 0 0 0 0 0 0
0 0 0 0 0 0 0 0 0 0 0 0 0 0 0 0 0 0 0 0 0 0 0 0 0 0 0 0 -0 0 0 0 0 0 0 0 0 0 0 0 0 0 0 0 0 0 0
0 0 0 0 0 0 0 0 0 0 0 0 0 0 0 0 0 -0 0 0 0 0 0 0 0 0 0 0 0 0 0 0 0 0 0 0 0 0 0 0 0 0 0 0 0 0 0
0 0 0 0 0 0 0 0 0 0 0 0 0 0 0 0 0 0 0 0 0 0 0 0 0 0 0 0 0 0 0 0 0 0 0 0 0 0 0 0 0 0 0 0 0 0 0
0 0 0 0 0 0 0 0 0 0 0 0 0 0 0 0 0 0 0 0 0 0 0 0 0 0 0 0 0 0 0 0 0 0 0 0 0 0 0 0 0 0 0 0 0 0 0
0 0 0 0 0 0 0 0 0 0 0 0 0 0 0 0 0 0 0 0 0 0 0 0 0 0 0 0 0 0 0 0 0 0 0 0 0 0 0 0 0 0 0 0 0 0 0
0 0 0 0 0 0 0 0 0 0 0 0 0 0 0 0 0 0 0 0 0 0 0 0 0 0 0 0 0 0 0 0 0 0 0 0 0 0 0 0 0 0 0 0 0 0 0
0 0 0 0 0 0 0 0 0 0 0 0 0 0 0 0 0 0 0 0 0 0 0 0 0 0 0 0 0 0 0 0 0 0 0 0 0 0 0 0 0 0 0 0 0 0 0
0 0 0 0 0 0 0 0 0 0 0 0 0 0 0 0 0 0 0 0 0 0 0 0 0 0 0 0 0 0 0 0 0 0 0 0 0 0 0 0 0 0 0 0 0 0 0
0 0 0 0 0 0 0 0 0 0 0 0 0 0 0 0 0 0 0 0 0 0 0 0 0 0 0 0 0 0 0 0 0 0 0 0 0 0 0 0 0 0 0 0 0 0 0
0 0 0 0 0 0 0 0 0 0 0 0 0 0 0 0 0 0 0 0 0 0 0 0 0 0 0 0 0 0 0 0 0 0 0 0 0 0 0 0 0 0 0 0 0 0 0
0 0 0 0 0 0 0 0 0 0 0 0 0 0 0 0 0 0 0 0 0 0 0 0 0 0 0 0 0 0 0 0 0 0 0 0 0 0 0 0 0 0 0 0 0 0 0
0 0 0 0 0 0 0 0 0 0 0 0 0 0 0 0 0 0 0 0 0 0 0 0 0 0 0 0 0 0 0 0 0 0 0 0 0 0 0 0 0 0 0 0 0 0 0
0 0 0 0 0 0 0 0 0 0 0 0 0 0 0 0 0 0 0 0 0 0 0 0 0 0 0 0 0 0 0 0 0 0 0 0 0 0 0 0 0 0 0 0 0 0 0
0 0 0 0 0 0 0 0 0 0 0 0 0 0 0 0 0 0 0 0 0 0 0 0 0 0 0 0 0 0 0 0 0 0 0 0 0 0 0 0 0 0 0 0 0 0 0
0 0 0 0 0 0 0 0 0 0 0 0 0 0 0 0 0 0 0 0 0 0 0 0 0 0 0 0 0 0 0 0 0 0 0 0 0 0 0 0 0 0 0 0 0 0 0
0 0 0 0 0 0 0 0 0 0 0 0 0 0 0 0 0 0 0 0 0 0 0 0 0 0 0 0 0 0 0 0 0 0 0 0 0 0 0 0 0 0 0 0 0 0 0
0 0 0 0 0 0 0 0 0 0 0 0 0 0 0 0 0 0 0 0 0 0 0 0 0 0 0 0 0 0 0 0 0 0 0 0 0 0 0 0 0 0 0 0 0 0 0
Wind_Speed_500mb
38 40 42 43 43 42 39 38 38 38 40 41 41 42 43 43 45 45 45 46 46 49 46 41 41 36 28 18 39 15 11 12 22 28 32 31 34 17 10 8 9 8 10 31 56 52 55
40 42 45 45 45 43 41 42 43 43 46 46 46 47 48 47 48 49 51 51 49 52 49 42 38 33 22 13 15 19 32 26 28 27 31 36 27 20 5 9 8 18 36 52 55 59 55
42 44 45 46 48 46 44 43 45 47 48 50 49 52 51 51 51 52 55 58 56 47 43 37 32 29 30 50 16 12 22 21 25 24 31 37 18 14 4 11 33 29 11 16 29 45 23
45 48 45 46 47 48 48 45 46 47 50 50 51 51 50 51 54 54 59 63 49 34 26 27 23 21 24 15 24 35 28 23 23 20 18 20 24 23 12 21 13 7 1 8 14 2 14
47 48 47 48 48 48 50 47 45 46 50 50 52 50 50 51 51 57 64 48 26 15 13 14 12 14 23 16 33 39 37 26 20 19 20 20 15 27 13 5 9 6 9 9 14 10 2
48 47 47 46 47 47 50 45 42 46 49 51 49 50 53 51 51 55 47 27 12 4 5 10 7 5 19 9 18 33 38 26 24 16 25 20 18 7 5 7 14 9 7 8 11 10 5
43 45 47 46 46 50 49 46 44 46 48 49 51 48 52 52 49 52 35 7 4 5 13 18 9 18 28 17 8 30 42 39 36 24 7 10 5 12 17 14 10 9 8 10 20 29 3
44 46 46 45 47 50 45 46 46 47 46 49 47 49 54 52 50 31 20 10 9 11 22 35 41 50 44 35 11 17 36 27 15 12 5 2 13 20 11 10 12 12 13 24 18 25 10
43 43 47 52 49 45 44 45 44 45 48 48 47 48 53 49 40 11 18 14 23 20 9 18 25 31 33 23 18 20 36 31 8 12 9 11 14 7 11 18 14 21 11 17 19 7 4
41 47 51 46 39 40 44 44 45 45 48 48 47 48 49 51 18 10 10 17 27 19 6 9 8 10 21 19 11 41 43 37 3 17 7 10 20 16 17 17 17 21 25 25 12 6 5
46 48 50 41 39 41 44 46 46 49 51 51 50 51 50 44 45 30 5 13 17 3 6 8 8 8 25 33 5 19 49 30 15 13 12 12 6 5 8 11 4 17 7 16 7 6 7
48 50 52 48 43 44 43 45 46 49 52 54 54 51 53 45 37 16 9 9 2 7 10 5 13 14 12 12 3 11 30 32 7 8 5 12 14 4 10 7 10 3 6 13 7 6 3
50 50 51 54 52 47 43 46 49 50 55 58 55 50 47 50 24 22 8 3 5 7 7 7 9 11 13 13 11 13 13 15 11 6 8 7 9 7 7 2 8 10 10 4 6 7 9
51 53 53 53 53 51 47 51 52 52 57 62 54 51 44 33 20 28 11 6 8 10 11 5 3 10 15 13 11 15 17 14 11 5 4 7 7 4 7 2 8 2 11 9 10 6 4
53 53 51 51 51 50 47 49 53 56 62 65 58 50 30 14 37 30 13 4 12 9 6 4 4 5 3 3 9 8 15 15 12 17 15 9 9 3 7 4 3 5 4 6 10 6 6
52 52 51 50 50 49 47 46 49 56 62 60 58 56 18 27 39 34 6 10 8 7 8 4 5 4 5 6 2 6 10 3 9 6 6 9 4 2 6 4 1 7 12 5 6 6 7
54 54 54 53 54 50 47 43 46 52 57 52 45 24 7 37 35 15 7 13 10 16 5 5 8 6 5 5 3 8 8 5 8 5 9 6 6 7 2 5 9 3 6 10 10 5 7
53 53 54 53 51 49 44 38 39 47 56 46 19 7 4 40 7 6 7 11 12 8 8 3 5 5 7 4 4 5 7 4 18 3 11 6 9 6 14 6 5 5 7 9 8 8 6
54 52 50 48 45 44 37 33 32 38 45 48 35 16 8 36 7 7 10 11 10 8 7 6 7 7 0 9 5 1 6 5 23 5 13 9 2 4 14 7 6 3 2 7 11 9 8
52 53 51 48 44 37 35 28 26 32 33 35 12 8 8 9 4 3 5 8 8 7 6 11 8 9 5 3 7 5 3 7 16 14 15 10 6 11 11 7 5 3 6 10 10 5 8
50 49 47 49 48 41 31 28 19 23 28 27 8 7 5 6 3 8 6 7 5 7 4 8 7 6 7 6 3 6 5 9 8 17 6 7 6 7 9 9 6 9 15 16 16 22 11
45 42 41 42 45 42 35 28 19 23 21 23 10 5 10 13 17 10 6 7 12 7 3 2 12 7 8 6 5 8 3 0 5 10 6 5 4 1 8 8 12 15 20 19 18 17 29
45 44 41 38 40 39 40 25 18 21 14 9 11 13 7 10 8 4 8 9 5 13 19 10 16 8 7 7 5 8 16 10 7 4 3 3 7 5 9 6 8 12 17 24 6 4 7
46 43 44 37 37 34 33 15 18 23 24 14 12 13 6 6 4 4 9 10 15 8 12 8 12 8 9 2 9 11 14 21 20 15 17 5 6 5 6 4 8 8 11 11 23 10 12
43 40 39 36 36 30 24 17 17 23 13 13 9 9 7 5 4 8 11 5 6 15 9 7 7 9 12 10 6 8 6 2 9 14 19 13 8 3 4 6 10 11 7 7 2 8 8
44 42 42 34 31 24 22 24 23 12 15 18 15 16 15 3 7 9 3 7 2 4 5 4 9 4 5 6 3 2 4 3 3 6 13 17 9 8 5 5 10 7 12 23 8 6 11
41 40 39 34 26 25 23 24 28 28 27 26 25 20 16 9 8 3 3 3 1 2 3 3 3 3 9 4 2 4 5 6 5 5 9 8 6 18 14 6 11 6 11 29 6 5 14
42 41 37 35 25 23 20 24 20 20 20 23 29 23 33 9 21 25 24 11 6 6 6 6 2 5 5 3 2 3 4 3 1 3 6 9 12 6 7 7 13 8 13 8 9 14 11
38 41 39 35 30 26 22 19 20 20 18 19 26 16 27 19 11 11 15 22 24 15 10 6 7 4 4 4 1 1 2 3 1 3 6 5 9 8 10 7 2 7 12 16 14 16 10
Wind_Direction_500mb
345 342 343 342 340 341 342 341 342 341 338 336 332 328 326 325 322 320 317 314 310 307 304 302 302 305 294 271 256 242 206 205 196 195 197 183 177 174 187 210 184 217 270 265 268 268 255
337 339 339 338 335 336 334 333 333 334 332 330 326 322 320 319 318 318 316 311 307 302 295 291 294 296 273 251 275 235 225 219 219 208 199 194 200 201 277 232 153 263 260 259 265 265 259
329 332 337 337 332 333 330 328 325 327 329 329 328 323 320 318 318 317 315 312 309 298 286 278 281 282 257 255 256 210 200 230 225 229 205 198 156 180 153 307 262 264 266 269 244 251 242
326 330 336 332 330 330 328 327 324 324 326 326 327 326 323 321 320 321 318 319 310 294 279 267 268 257 251 259 226 223 205 206 213 210 192 183 219 253 260 265 303 301 198 302 286 253 245
327 326 327 328 326 327 323 322 322 323 325 325 326 327 327 326 324 324 322 324 313 297 274 258 227 219 266 254 240 212 201 198 196 213 223 238 246 239 237 105 343 344 241 240 298 216 278
321 322 322 323 322 322 320 321 322 324 324 323 324 327 328 328 328 326 330 331 335 347 139 148 201 245 253 288 259 208 200 204 217 235 255 239 206 168 52 105 235 255 264 304 294 283 358
318 319 319 320 319 318 317 326 324 323 322 323 325 326 328 329 330 326 330 317 10 285 228 224 232 242 284 336 236 207 200 214 229 238 231 241 153 217 228 212 232 285 271 275 282 282 292
318 318 318 316 316 319 320 321 322 322 322 323 326 327 328 329 329 321 330 332 0 322 295 277 253 255 258 266 315 240 195 191 173 203 205 46 230 231 227 219 224 253 272 282 291 265 156
319 319 318 317 317 319 322 321 321 321 323 323 325 325 326 329 325 305 322 13 4 329 267 287 239 235 235 230 224 240 195 192 158 193 187 185 233 185 230 265 264 263 223 260 228 293 304
318 319 322 322 321 320 323 323 322 321 320 320 322 321 323 327 314 282 306 335 338 337 17 267 224 238 186 181 245 231 209 187 198 201 207 240 258 251 264 249 234 251 242 236 242 113 213
316 321 326 322 321 321 322 322 321 322 321 321 321 319 319 319 300 280 253 317 321 323 321 174 187 171 174 164 164 202 204 189 189 203 141 230 224 219 236 236 213 233 219 192 159 106 94
318 321 327 329 320 322 321 318 316 315 318 319 315 315 315 310 289 198 248 294 268 35 260 282 144 168 131 209 171 127 180 198 242 194 255 237 281 258 231 267 251 8 67 47 55 100 92
318 318 318 320 325 324 318 318 317 315 316 317 309 310 305 292 272 184 217 196 61 187 302 197 204 164 176 177 201 153 163 194 193 144 253 313 265 241 225 231 14 78 55 346 344 2 221
314 314 314 314 315 319 316 317 321 318 317 319 307 310 301 271 220 226 219 66 208 233 268 264 297 122 181 161 232 177 156 202 249 143 108 187 310 226 349 132 170 129 151 156 200 202 271
308 309 309 309 307 309 312 314 319 319 324 326 316 315 297 211 188 189 179 174 216 216 299 347 286 112 287 83 160 140 168 203 207 177 179 174 253 359 50 6 158 179 76 188 101 330 75
302 305 305 304 305 304 304 310 315 319 327 331 328 321 290 179 176 172 111 231 241 250 346 284 197 96 129 334 92 89 157 214 179 178 177 209 241 22 303 0 279 190 160 84 19 187 240
299 301 301 303 302 304 304 305 313 319 327 332 327 315 168 172 174 174 182 224 252 270 359 289 185 134 144 155 139 164 214 130 357 55 99 113 116 271 28 191 208 293 127 63 100 138 182
304 305 307 307 306 302 301 301 311 320 330 337 337 317 179 176 146 205 187 206 219 231 202 333 101 126 142 142 163 208 147 73 354 283 148 155 137 185 231 262 336 215 161 121 127 197 222
309 308 309 310 309 307 300 295 305 317 331 340 325 272 227 199 203 257 276 257 239 213 224 102 59 17 229 161 169 57 79 36 10 100 161 188 38 36 337 5 10 127 75 171 122 84 208
309 309 310 308 306 304 295 285 295 308 322 332 304 311 295 214 233 200 280 253 196 42 79 89 109 139 110 114 25 131 54 0 11 39 51 100 134 167 198 193 165 247 216 155 142 151 204
309 308 308 307 307 304 297 278 260 292 306 324 250 257 334 315 342 323 282 288 186 188 71 97 63 91 148 135 61 112 43 346 18 8 54 91 188 199 239 236 232 240 256 255 184 202 198
317 316 316 318 320 313 300 277 272 279 288 304 270 308 338 294 307 298 3 249 201 131 99 69 126 136 76 132 164 172 105 77 265 6 48 358 192 217 284 259 238 256 250 253 255 244 219
321 318 318 317 316 314 310 270 266 283 280 275 283 294 291 295 310 320 334 325 348 115 34 102 138 114 123 182 170 204 202 208 215 107 29 30 136 101 262 308 315 283 245 228 148 113 159
325 324 320 319 317 314 315 282 262 280 254 257 286 304 279 276 311 18 321 7 19 6 124 129 124 120 154 129 275 264 256 236 223 224 190 153 123 116 251 351 221 247 35 89 108 102 109
321 318 315 315 316 309 296 266 276 278 231 250 286 277 266 272 314 317 343 342 17 36 59 75 51 101 140 56 36 354 337 3 235 212 199 169 130 182 242 181 301 143 200 112 184 188 163
324 323 320 310 311 305 293 288 286 282 299 272 267 269 254 258 231 292 329 15 70 29 360 66 71 79 95 90 93 73 248 235 238 28 174 167 148 160 167 182 220 242 60 13 120 275 165
326 324 324 319 299 315 295 296 289 280 273 272 266 262 260 255 256 218 121 283 215 107 131 323 347 51 71 102 203 200 258 246 158 194 154 150 181 218 218 235 284 256 118 43 142 235 167
329 329 325 322 304 311 295 287 301 289 257 266 273 260 231 236 264 268 279 236 205 189 162 210 92 7 64 111 148 241 236 353 318 226 179 162 174 170 184 220 254 121 108 181 160 142 161
327 329 325 323 317 295 285 286 277 277 277 265 263 251 233 241 255 258 244 255 250 236 228 203 144 118 128 111 330 83 317 317 245 292 119 213 185 162 195 219 288 36 118 124 137 148 142
Wind_Speed_850mb
38 40 42 43 43 42 39 38 38 38 40 41 41 42 43 43 45 45 45 46 46 49 46 41 41 36 28 18 39 15 11 12 22 28 32 31 34 17 10 8 9 8 10 31 56 52 55
40 42 45 45 45 43 41 42 43 43 46 46 46 47 48 47 48 49 51 51 49 52 49 42 38 33 22 13 15 19 32 26 28 27 31 36 27 20 5 9 8 18 36 52 55 59 55
42 44 45 46 48 46 44 43 45 47 48 50 49 52 51 51 51 52 55 58 56 47 43 37 32 29 30 50 16 12 22 21 25 24 31 37 18 14 4 11 33 29 11 16 29 45 23
45 48 45 46 47 48 48 45 46 47 50 50 51 51 50 51 54 54 59 63 49 34 26 27 23 21 24 15 24 35 28 23 23 20 18 20 24 23 12 21 13 7 1 8 14 2 14
47 48 47 48 48 48 50 47 45 46 50 50 52 50 50 51 51 57 64 48 26 15 13 14 12 14 23 16 33 39 37 26 20 19 20 20 15 27 13 5 9 6 9 9 14 10 2
48 47 47 46 47 47 50 45 42 46 49 51 49 50 53 51 51 55 47 27 12 4 5 10 7 5 19 9 18 33 38 26 24 16 25 20 18 7 5 7 14 9 7 8 11 10 5
43 45 47 46 46 50 49 46 44 46 48 49 51 48 52 52 49 52 35 7 4 5 13 18 9 18 28 17 8 30 42 39 36 24 7 10 5 12 17 14 10 9 8 10 20 29 3
44 46 46 45 47 50 45 46 46 47 46 49 47 49 54 52 50 31 20 10 9 11 22 35 41 50 44 35 11 17 36 27 15 12 5 2 13 20 11 10 12 12 13 24 18 25 10
43 43 47 52 49 45 44 45 44 45 48 48 47 48 53 49 40 11 18 14 23 20 9 18 25 31 33 23 18 20 36 31 8 12 9 11 14 7 11 18 14 21 11 17 19 7 4
41 47 51 46 39 40 44 44 45 45 48 48 47 48 49 51 18 10 10 17 27 19 6 9 8 10 21 19 11 41 43 37 3 17 7 10 20 16 17 17 17 21 25 25 12 6 5
46 48 50 41 39 41 44 46 46 49 51 51 50 51 50 44 45 30 5 13 17 3 6 8 8 8 25 33 5 19 49 30 15 13 12 12 6 5 8 11 4 17 7 16 7 6 7
48 50 52 48 43 44 43 45 46 49 52 54 54 51 53 45 37 16 9 9 2 7 10 5 13 14 12 12 3 11 30 32 7 8 5 12 14 4 10 7 10 3 6 13 7 6 3
50 50 51 54 52 47 43 46 49 50 55 58 55 50 47 50 24 22 8 3 5 7 7 7 9 11 13 13 11 13 13 15 11 6 8 7 9 7 7 2 8 10 10 4 6 7 9
51 53 53 53 53 51 47 51 52 52 57 62 54 51 44 33 20 28 11 6 8 10 11 5 3 10 15 13 11 15 17 14 11 5 4 7 7 4 7 2 8 2 11 9 10 6 4
53 53 51 51 51 50 47 49 53 56 62 65 58 50 30 14 37 30 13 4 12 9 6 4 4 5 3 3 9 8 15 15 12 17 15 9 9 3 7 4 3 5 4 6 10 6 6
52 52 51 50 50 49 47 46 49 56 62 60 58 56 18 27 39 34 6 10 8 7 8 4 5 4 5 6 2 6 10 3 9 6 6 9 4 2 6 4 1 7 12 5 6 6 7
54 54 54 53 54 50 47 43 46 52 57 52 45 24 7 37 35 15 7 13 10 16 5 5 8 6 5 5 3 8 8 5 8 5 9 6 6 7 2 5 9 3 6 10 10 5 7
53 53 54 53 51 49 44 38 39 47 56 46 19 7 4 40 7 6 7 11 12 8 8 3 5 5 7 4 4 5 7 4 18 3 11 6 9 6 14 6 5 5 7 9 8 8 6
54 52 50 48 45 44 37 33 32 38 45 48 35 16 8 36 7 7 10 11 10 8 7 6 7 7 0 9 5 1 6 5 23 5 13 9 2 4 14 7 6 3 2 7 11 9 8
52 53 51 48 44 37 35 28 26 32 33 35 12 8 8 9 4 3 5 8 8 7 6 11 8 9 5 3 7 5 3 7 16 14 15 10 6 11 11 7 5 3 6 10 10 5 8
50 49 47 49 48 41 31 28 19 23 28 27 8 7 5 6 3 8 6 7 5 7 4 8 7 6 7 6 3 6 5 9 8 17 6 7 6 7 9 9 6 9 15 16 16 22 11
45 42 41 42 45 42 35 28 19 23 21 23 10 5 10 13 17 10 6 7 12 7 3 2 12 7 8 6 5 8 3 0 5 10 6 5 4 1 8 8 12 15 20 19 18 17 29
45 44 41 38 40 39 40 25 18 21 14 9 11 13 7 10 8 4 8 9 5 13 19 10 16 8 7 7 5 8 16 10 7 4 3 3 7 5 9 6 8 12 17 24 6 4 7
46 43 44 37 37 34 33 15 18 23 24 14 12 13 6 6 4 4 9 10 15 8 12 8 12 8 9 2 9 11 14 21 20 15 17 5 6 5 6 4 8 8 11 11 23 10 12
43 40 39 36 36 30 24 17 17 23 13 13 9 9 7 5 4 8 11 5 6 15 9 7 7 9 12 10 6 8 6 2 9 14 19 13 8 3 4 6 10 11 7 7 2 8 8
44 42 42 34 31 24 22 24 23 12 15 18 15 16 15 3 7 9 3 7 2 4 5 4 9 4 5 6 3 2 4 3 3 6 13 17 9 8 5 5 10 7 12 23 8 6 11
41 40 39 34 26 25 23 24 28 28 27 26 25 20 16 9 8 3 3 3 1 2 3 3 3 3 9 4 2 4 5 6 5 5 9 8 6 18 14 6 11 6 11 29 6 5 14
42 41 37 35 25 23 20 24 20 20 20 23 29 23 33 9 21 25 24 11 6 6 6 6 2 5 5 3 2 3 4 3 1 3 6 9 12 6 7 7 13 8 13 8 9 14 11
38 41 39 35 30 26 22 19 20 20 18 19 26 16 27 19 11 11 15 22 24 15 10 6 7 4 4 4 1 1 2 3 1 3 6 5 9 8 10 7 2 7 12 16 14 16 10
Wind_Direction_850mb
345 342 343 342 340 341 342 341 342 341 338 336 332 328 326 325 322 320 317 314 310 307 304 302 302 305 294 271 256 242 206 205 196 195 197 183 177 174 187 210 184 217 270 265 268 268 255
337 339 339 338 335 336 334 333 333 334 332 330 326 322 320 319 318 318 316 311 307 302 295 291 294 296 273 251 275 235 225 219 219 208 199 194 200 201 277 232 153 263 260 259 265 265 259
329 332 337 337 332 333 330 328 325 327 329 329 328 323 320 318 318 317 315 312 309 298 286 278 281 282 257 255 256 210 200 230 225 229 205 198 156 180 153 307 262 264 266 269 244 251 242
326 330 336 332 330 330 328 327 324 324 326 326 327 326 323 321 320 321 318 319 310 294 279 267 268 257 251 259 226 223 205 206 213 210 192 183 219 253 260 265 303 301 198 302 286 253 245
327 326 327 328 326 327 323 322 322 323 325 325 326 327 327 326 324 324 322 324 313 297 274 258 227 219 266 254 240 212 201 198 196 213 223 238 246 239 237 105 343 344 241 240 298 216 278
321 322 322 323 322 322 320 321 322 324 324 323 324 327 328 328 328 326 330 331 335 347 139 148 201 245 253 288 259 208 200 204 217 235 255 239 206 168 52 105 235 255 264 304 294 283 358
318 319 319 320 319 318 317 326 324 323 322 323 325 326 328 329 330 326 330 317 10 285 228 224 232 242 284 336 236 207 200 214 229 238 231 241 153 217 228 212 232 285 271 275 282 282 292
318 318 318 316 316 319 320 321 322 322 322 323 326 327 328 329 329 321 330 332 0 322 295 277 253 255 258 266 315 240 195 191 173 203 205 46 230 231 227 219 224 253 272 282 291 265 156
319 319 318 317 317 319 322 321 321 321 323 323 325 325 326 329 325 305 322 13 4 329 267 287 239 235 235 230 224 240 195 192 158 193 187 185 233 185 230 265 264 263 223 260 228 293 304
318 319 322 322 321 320 323 323 322 321 320 320 322 321 323 327 314 282 306 335 338 337 17 267 224 238 186 181 245 231 209 187 198 201 207 240 258 251 264 249 234 251 242 236 242 113 213
316 321 326 322 321 321 322 322 321 322 321 321 321 319 319 319 300 280 253 317 321 323 321 174 187 171 174 164 164 202 204 189 189 203 141 230 224 219 236 236 213 233 219 192 159 106 94
318 321 327 329 320 322 321 318 316 315 318 319 315 315 315 310 289 198 248 294 268 35 260 282 144 168 131 209 171 127 180 198 242 194 255 237 281 258 231 267 251 8 67 47 55 100 92
318 318 318 320 325 324 318 318 317 315 316 317 309 310 305 292 272 184 217 196 61 187 302 197 204 164 176 177 201 153 163 194 193 144 253 313 265 241 225 231 14 78 55 346 344 2 221
314 314 314 314 315 319 316 317 321 318 317 319 307 310 301 271 220 226 219 66 208 233 268 264 297 122 181 161 232 177 156 202 249 143 108 187 310 226 349 132 170 129 151 156 200 202 271
308 309 309 309 307 309 312 314 319 319 324 326 316 315 297 211 188 189 179 174 216 216 299 347 286 112 287 83 160 140 168 203 207 177 179 174 253 359 50 6 158 179 76 188 101 330 75
302 305 305 304 305 304 304 310 315 319 327 331 328 321 290 179 176 172 111 231 241 250 346 284 197 96 129 334 92 89 157 214 179 178 177 209 241 22 303 0 279 190 160 84 19 187 240
299 301 301 303 302 304 304 305 313 319 327 332 327 315 168 172 174 174 182 224 252 270 359 289 185 134 144 155 139 164 214 130 357 55 99 113 116 271 28 191 208 293 127 63 100 138 182
304 305 307 307 306 302 301 301 311 320 330 337 337 317 179 176 146 205 187 206 219 231 202 333 101 126 142 142 163 208 147 73 354 283 148 155 137 185 231 262 336 215 161 121 127 197 222
309 308 309 310 309 307 300 295 305 317 331 340 325 272 227 199 203 257 276 257 239 213 224 102 59 17 229 161 169 57 79 36 10 100 161 188 38 36 337 5 10 127 75 171 122 84 208
309 309 310 308 306 304 295 285 295 308 322 332 304 311 295 214 233 200 280 253 196 42 79 89 109 139 110 114 25 131 54 0 11 39 51 100 134 167 198 193 165 247 216 155 142 151 204
309 308 308 307 307 304 297 278 260 292 306 324 250 257 334 315 342 323 282 288 186 188 71 97 63 91 148 135 61 112 43 346 18 8 54 91 188 199 239 236 232 240 256 255 184 202 198
317 316 316 318 320 313 300 277 272 279 288 304 270 308 338 294 307 298 3 249 201 131 99 69 126 136 76 132 164 172 105 77 265 6 48 358 192 217 284 259 238 256 250 253 255 244 219
321 318 318 317 316 314 310 270 266 283 280 275 283 294 291 295 310 320 334 325 348 115 34 102 138 114 123 182 170 204 202 208 215 107 29 30 136 101 262 308 315 283 245 228 148 113 159
325 324 320 319 317 314 315 282 262 280 254 257 286 304 279 276 311 18 321 7 19 6 124 129 124 120 154 129 275 264 256 236 223 224 190 153 123 116 251 351 221 247 35 89 108 102 109
321 318 315 315 316 309 296 266 276 278 231 250 286 277 266 272 314 317 343 342 17 36 59 75 51 101 140 56 36 354 337 3 235 212 199 169 130 182 242 181 301 143 200 112 184 188 163
324 323 320 310 311 305 293 288 286 282 299 272 267 269 254 258 231 292 329 15 70 29 360 66 71 79 95 90 93 73 248 235 238 28 174 167 148 160 167 182 220 242 60 13 120 275 165
326 324 324 319 299 315 295 296 289 280 273 272 266 262 260 255 256 218 121 283 215 107 131 323 347 51 71 102 203 200 258 246 158 194 154 150 181 218 218 235 284 256 118 43 142 235 167
329 329 325 322 304 311 295 287 301 289 257 266 273 260 231 236 264 268 279 236 205 189 162 210 92 7 64 111 148 241 236 353 318 226 179 162 174 170 184 220 254 121 108 181 160 142 161
327 329 325 323 317 295 285 286 277 277 277 265 263 251 233 241 255 258 244 255 250 236 228 203 144 118 128 111 330 83 317 317 245 292 119 213 185 162 195 219 288 36 118 124 137 148 142